Flag for Hungary Weather past 2 weeks in Győr, Hungary

Now
62 °F

Cool.


Feels Like: 62 °F
Forecast: 67 / 89 °F
Wind: No wind

Location: Gyor

Current Time: Aug 4, 2015 at 5:33:35 AM

Latest Report: Aug 4, 2015 at 5:00 AM


Visibility: N/A

Pressure: 30.02 "Hg

Humidity: 99%

Dew point: 62 °F

Location of GyőrLocation

Historic Weather in Győr — Graph

°F

Győr temperature yesterday

Maximum temperature yesterday: 88 °F (at 5:00 PM)
Minimum temperature yesterday: 63 °F (at 4:00 AM)
Average temperature yesterday: 75 °F

Past Weeks' High & Low Weather Summary

 TemperatureHumidityPressure
High100 °F (Jul 22, 4:00 PM)100% (Jul 25, 10:00 PM)30.10 "Hg (Jul 25, 10:00 PM)
Low50 °F (Aug 1, 3:00 AM)24% (Jul 31, 4:00 PM)29.68 "Hg (Jul 25, 4:00 PM)
Average73 °F65%29.92 "Hg
* Reported Jul 20 4:00 AM — Aug 4 4:00 AM, Győr, Weather by CustomWeather, © 2015

Note: Actual official high and low records may vary slightly from our data, if they occured in-between our weather recording intervals... More about our weather records

Advertising

Győr weather history for previous 24 hours

 ConditionsComfort  
Time TempWeatherWind HumidityBarometerVisibility
4:00 AM
Tue, Aug 4
63 °FMild.No wind100%30.03 "HgN/A
3:00 AM64 °FMild.No wind98%30.03 "HgN/A
2:00 AM65 °FMild.No wind96%30.03 "HgN/A
1:00 AM66 °FMild.No wind93%30.04 "HgN/A
12:00 AM68 °FMild.1 mph90%30.05 "HgN/A
11:00 PM
Mon, Aug 3
69 °FMild.No wind83%30.05 "HgN/A
10:00 PM72 °FMild.1 mph73%30.05 "HgN/A
9:00 PM77 °FMild.1 mph66%30.03 "HgN/A
8:00 PM82 °FWarm.1 mph55%30.02 "HgN/A
7:00 PM85 °FWarm.1 mph42%30.02 "HgN/A
6:00 PM87 °FWarm.1 mph40%30.02 "HgN/A
5:00 PM88 °FHot.1 mph38%30.03 "HgN/A
4:00 PM86 °FWarm.1 mph42%30.04 "HgN/A
3:00 PM87 °FWarm.1 mph43%30.05 "HgN/A
2:00 PM82 °FWarm.1 mph54%30.06 "HgN/A
1:00 PM82 °FWarm.1 mph53%30.07 "HgN/A
12:00 PM82 °FWarm.2 mph55%30.07 "HgN/A
11:00 AM79 °FWarm.1 mph57%30.09 "HgN/A
10:00 AM75 °FMild.1 mph65%30.09 "HgN/A
9:00 AM70 °FMild.1 mph80%30.09 "HgN/A
8:00 AM67 °FMild.No wind85%30.09 "HgN/A
7:00 AM64 °FMild.No wind99%30.08 "HgN/A
Weather by CustomWeather, © 2015

See weather overviewHow to use our weather pages